Location: Unspecified
(0.0000°N, 0.0000°E)
Time: 19:32:57
(UTC+00:00)

Vanguard 1 Rocket - Pass Details

Date: 18 April 2026
Orbit: 655 x 4212 km, 34.3° (Epoch: 17 May)

Event Time Altitude Azimuth Distance (km) Brightness Sun altitude
Rises 03:35:06 0° 318° (NW) 7,108 11.7 -35.3°
Reaches altitude 10° 03:41:43 10° 328° (NNW) 5,423 11.1 -33.7°
Maximum altitude 03:52:58 27° 20° (NNE) 2,926 10.2 -31.0°
Drops below altitude 10° 03:59:47 10° 76° (ENE) 3,206 11.1 -29.3°
Sets 04:02:29 0° 89° (E) 3,838 11.8 -28.7°
